Date String (YYYY-MM-DD hh:mm:ss) UTC,Instrument flags,Ambient pressure (hPa),Sample flow (lpm),Bypass flow (lpm),Sample temperature (°C),Ambient temperature (°C),ASC tube jacket temperature (°C),LED temperature (°C),Box temperature (°C),Sample RH (%),Span deviation,Mass concentration (μg/m³),Mass concentration (μg/m³),Mass concentration (μg/m³)
DateTimeUTC,F1_M11,P_M11,Q1_M11,Q2_M11,T1_M11,T2_M11,T3_M11,T4_M11,T5_M11,U1_M11,ZSPAN_M11,X0_M11,X2_M11,X1_M11
2021-11-05 18:00:00,,0827.4,5.01,0.00,30.3,29.2,00.0,39.3,32.1,10.2,0000.0,0009.52,0002.59,0001.66
2021-11-05 18:01:00,,0827.4,5.00,0.00,30.4,29.3,00.0,39.3,32.1,10.0,0000.0,0009.42,0002.55,0001.63
2021-11-05 18:02:00,,0827.4,5.00,0.00,30.4,29.4,00.0,39.3,32.1,09.9,0000.0,0008.97,0002.47,0001.58
2021-11-05 18:03:00,,0827.4,5.01,0.00,30.4,29.4,00.0,39.4,32.2,09.9,0000.0,0009.15,0002.44,0001.54
2021-11-05 18:04:00,,0827.4,4.99,0.00,30.4,29.5,00.0,39.4,32.2,09.9,0000.0,0009.02,0002.45,0001.54
2021-11-05 18:05:00,,0827.4,5.00,0.00,30.5,29.6,00.0,39.4,32.3,10.0,0000.0,0009.08,0002.47,0001.54
2021-11-05 18:06:00,,0827.4,5.01,0.00,30.5,29.6,00.0,39.4,32.3,10.3,0000.0,0009.76,0002.47,0001.54
2021-11-05 18:07:00,,0827.4,5.01,0.00,30.5,29.7,00.0,39.4,32.3,10.5,0000.0,0010.02,0002.50,0001.58
2021-11-05 18:08:00,,0827.4,4.99,0.00,30.6,29.4,00.0,39.4,32.3,10.5,0000.0,0010.15,0002.52,0001.62
2021-11-05 18:09:00,,0827.4,5.01,0.00,30.5,27.4,00.0,39.4,31.9,10.6,0000.0,0009.42,0002.64,0001.67
2021-11-05 18:10:00,,0827.4,5.00,0.00,30.3,26.3,00.0,39.4,31.7,10.8,0000.0,0009.46,0002.73,0001.71
2021-11-05 18:11:00,,0827.3,5.00,0.00,30.3,26.6,00.0,39.4,31.7,10.8,0000.0,0009.21,0002.74,0001.73
2021-11-05 18:12:00,,0827.3,5.00,0.00,30.2,27.1,00.0,39.3,31.7,10.7,0000.0,0009.68,0002.78,0001.75
2021-11-05 18:13:00,,0827.2,5.01,0.00,30.1,27.5,00.0,39.3,31.6,10.4,0000.0,0009.81,0002.76,0001.75
2021-11-05 18:14:00,,0827.3,5.00,0.00,30.1,27.9,00.0,39.2,31.7,10.2,0000.0,0009.27,0002.70,0001.75
2021-11-05 18:15:00,,0827.3,5.00,0.00,30.1,28.3,00.0,39.2,31.8,10.2,0000.0,0008.95,0002.69,0001.76
2021-11-05 18:16:00,,0827.2,5.00,0.00,30.1,28.6,00.0,39.2,31.9,10.3,0000.0,0009.11,0002.71,0001.75
2021-11-05 18:17:00,,0827.2,5.01,0.00,30.2,28.8,00.0,39.2,31.9,10.3,0000.0,0008.82,0002.68,0001.75
2021-11-05 18:18:00,,0827.2,5.01,0.00,30.2,28.9,00.0,39.2,31.9,10.2,0000.0,0008.81,0002.67,0001.74
2021-11-05 18:19:00,,0827.2,5.00,0.00,30.2,29.1,00.0,39.2,32.0,10.2,0000.0,0008.40,0002.64,0001.71
2021-11-05 18:20:00,,0827.2,4.99,0.00,30.3,29.2,00.0,39.2,32.0,10.2,0000.0,0007.66,0002.52,0001.68
2021-11-05 18:21:00,,0827.2,5.00,0.00,30.3,29.3,00.0,39.2,32.1,10.2,0000.0,0007.46,0002.42,0001.65
2021-11-05 18:22:00,,0827.2,5.00,0.00,30.3,29.4,00.0,39.2,32.1,10.1,0000.0,0007.42,0002.35,0001.62
2021-11-05 18:23:00,,0827.2,4.99,0.00,30.4,29.5,00.0,39.3,32.2,10.1,0000.0,0006.98,0002.32,0001.61
2021-11-05 18:24:00,,0827.2,5.01,0.00,30.4,29.6,00.0,39.3,32.2,10.1,0000.0,0006.51,0002.32,0001.60
2021-11-05 18:25:00,,0827.3,5.00,0.00,30.4,28.4,00.0,39.3,32.1,10.2,0000.0,0006.81,0002.32,0001.58
2021-11-05 18:26:00,,0827.3,5.01,0.00,30.3,26.5,00.0,39.3,31.6,10.4,0000.0,0006.28,0002.29,0001.58
2021-11-05 18:27:00,,0827.2,5.00,0.00,30.2,26.3,00.0,39.2,31.6,10.3,0000.0,0005.91,0002.25,0001.56
2021-11-05 18:28:00,,0827.2,5.00,0.00,30.1,26.8,00.0,39.2,31.6,10.5,0000.0,0007.07,0002.29,0001.55
2021-11-05 18:29:00,,0827.2,5.00,0.00,30.1,27.3,00.0,39.1,31.6,10.7,0000.0,0006.67,0002.32,0001.56
2021-11-05 18:30:00,,0827.2,5.00,0.00,30.1,27.7,00.0,39.1,31.7,10.8,0000.0,0006.98,0002.41,0001.59
2021-11-05 18:31:00,,0827.2,4.99,0.00,30.1,28.1,00.0,39.1,31.8,10.8,0000.0,0007.53,0002.45,0001.60
2021-11-05 18:32:00,,0827.2,5.00,0.00,30.1,28.4,00.0,39.1,31.8,10.6,0000.0,0007.66,0002.52,0001.62
2021-11-05 18:33:00,,0827.3,5.01,0.00,30.1,28.7,00.0,39.1,31.9,10.5,0000.0,0007.68,0002.57,0001.63
2021-11-05 18:34:00,,0827.2,5.00,0.00,30.1,28.9,00.0,39.1,31.9,10.4,0000.0,0007.61,0002.58,0001.63
2021-11-05 18:35:00,,0827.3,5.00,0.00,30.2,29.1,00.0,39.1,32.0,10.2,0000.0,0007.74,0002.62,0001.64
2021-11-05 18:36:00,,0827.3,5.01,0.00,30.2,29.2,00.0,39.1,32.0,10.3,0000.0,0007.73,0002.61,0001.64
2021-11-05 18:37:00,,0827.2,5.00,0.00,30.3,29.3,00.0,39.1,32.1,10.0,0000.0,0008.33,0002.62,0001.65
2021-11-05 18:38:00,,0827.2,5.01,0.00,30.3,29.4,00.0,39.2,32.1,10.3,0000.0,0008.83,0002.61,0001.65
2021-11-05 18:39:00,,0827.2,5.00,0.00,30.3,29.0,00.0,39.2,32.0,09.8,0000.0,0008.17,0002.61,0001.66
2021-11-05 18:40:00,,0827.1,5.02,0.00,30.2,27.1,00.0,39.2,31.7,09.0,0000.0,0008.03,0002.52,0001.61
2021-11-05 18:41:00,,0827.1,4.99,0.00,30.1,26.2,00.0,39.1,31.5,08.3,0000.0,0008.34,0002.37,0001.53
2021-11-05 18:42:00,,0827.1,5.00,0.00,30.0,26.6,00.0,39.1,31.5,09.0,0000.0,0007.97,0002.30,0001.48
2021-11-05 18:43:00,,0827.0,5.00,0.00,30.0,27.0,00.0,39.0,31.5,08.8,0000.0,0007.75,0002.15,0001.40
2021-11-05 18:44:00,,0827.0,5.01,0.00,29.9,27.4,00.0,39.0,31.4,10.1,0000.0,0007.85,0002.08,0001.36
2021-11-05 18:45:00,,0827.0,5.00,0.00,29.9,27.8,00.0,39.0,31.5,10.3,0000.0,0008.73,0002.08,0001.37
2021-11-05 18:46:00,,0827.1,5.00,0.00,29.9,28.1,00.0,39.0,31.6,10.7,0000.0,0009.31,0002.08,0001.37
2021-11-05 18:47:00,,0827.0,4.99,0.00,29.9,28.4,00.0,38.9,31.7,09.6,0000.0,0009.40,0002.10,0001.37
2021-11-05 18:48:00,,0827.3,5.01,0.00,30.0,28.6,00.0,38.9,31.8,10.0,0000.0,0009.30,0002.13,0001.36
2021-11-05 18:49:00,,0827.2,5.00,0.00,30.0,28.8,00.0,39.0,31.8,09.9,0000.0,0009.27,0002.15,0001.36
2021-11-05 18:50:00,,0827.1,5.00,0.00,30.0,29.0,00.0,39.0,31.9,08.5,0000.0,0009.09,0002.08,0001.32
2021-11-05 18:51:00,,0827.3,4.99,0.00,30.1,29.1,00.0,39.0,31.9,07.8,0000.0,0009.75,0002.04,0001.28
2021-11-05 18:52:00,,0827.0,5.00,0.00,30.1,29.2,00.0,39.0,32.0,07.3,0000.0,0009.46,0002.07,0001.27
2021-11-05 18:53:00,,0827.0,5.00,0.00,30.2,29.3,00.0,39.0,32.0,07.5,0000.0,0010.07,0002.05,0001.26
2021-11-05 18:54:00,,0827.1,5.00,0.00,30.2,29.3,00.0,39.1,32.0,07.6,0000.0,0010.57,0002.03,0001.24
2021-11-05 18:55:00,,0826.9,5.00,0.00,30.2,28.9,00.0,39.1,32.0,07.6,0000.0,0010.54,0002.00,0001.20
2021-11-05 18:56:00,,0826.9,5.00,0.00,30.2,27.0,00.0,39.1,31.6,08.6,0000.0,0009.65,0001.93,0001.14
2021-11-05 18:57:00,,0826.9,5.01,0.00,30.0,26.0,00.0,39.0,31.4,07.9,0000.0,0008.97,0001.84,0001.08
2021-11-05 18:58:00,,0826.9,5.00,0.00,30.0,26.4,00.0,39.0,31.4,08.1,0000.0,0008.52,0001.71,0001.02
2021-11-05 18:59:00,,0826.8,5.00,0.00,29.9,26.9,00.0,38.9,31.4,08.5,0000.0,0008.28,0001.67,0001.00
